Tracking 18980 objects as of 18-Feb-2018
HD Live streaming from Space Station
objects crossing your sky now

NIMBUS 2 DEB

Track NIMBUS 2 DEB now!
10-day predictions


NORAD ID: 37891
Int'l Code: 1966-040AW
Perigee: 1,071.5 km
Apogee: 1,179.2 km
Inclination: 100.5 °
Period: 107.7 minutes
Semi major axis: 7496 km
RCS: 0.0282 m2 (small)
Launch date: May 15, 1966
Source: United States (US)
Launch site: AIR FORCE WESTERN TEST RANGE (AFWTR)

Note: This is SATELLITE DEBRIS
aabbcc
Your satellite tracking list
Your tracking list is empty




NASA's NSSDC Master Catalog

Two Line Element Set (TLE):
1 37891U 66040AW  18046.35049984 +.00000724 +00000-0 +14505-2 0  9995
2 37891 100.5482 202.6926 0071852 270.8694 088.4198 13.37601761325728
Source of the keplerian elements: AFSPC